• în România
  • Lista ţărilor
  • Pe 7 zile
  • Temperatura apei
  • Hartă satelitară
  • Meteo pe hartă
  • Widget-uri
  • user-avatar
    Intrare

    Meteo pe oră la Parakou

    Astăzi, 19 Septembrie, Miercuri

    Timp Temperatura Precipitaţii Vânt Presiune Umiditate
    00:00 +25°C° 0 mm 1 m/s 728 mmHg 96%
    01:00 +24°C° 0 mm 1 m/s 728 mmHg 97%
    02:00 +24°C° 0 mm 1 m/s 727 mmHg 98%
    03:00 +24°C° 0 mm 1 m/s 727 mmHg 98%
    04:00 +24°C° 0 mm 1 m/s 727 mmHg 98%
    05:00 +24°C° 0 mm 1 m/s 727 mmHg 98%
    06:00 +23°C° 0 mm 1 m/s 727 mmHg 97%
    07:00 +25°C° 0 mm 2 m/s 728 mmHg 91%
    08:00 +26°C° 0 mm 2 m/s 728 mmHg 84%
    09:00 +28°C° 0 mm 2 m/s 728 mmHg 78%
    10:00 +29°C° 0 mm 2 m/s 728 mmHg 72%
    11:00 +31°C° 0 mm 2 m/s 728 mmHg 65%
    12:00 +32°C° 0 mm 2 m/s 728 mmHg 59%
    13:00 +32°C° 0 mm 2 m/s 727 mmHg 59%
    14:00 +34°C° 0 mm 2 m/s 726 mmHg 58%
    15:00 +33°C° 0 mm 1 m/s 726 mmHg 58%
    16:00 +31°C° 0 mm 1 m/s 726 mmHg 63%
    17:00 +30°C° 0 mm 1 m/s 726 mmHg 69%
    18:00 +29°C° 0 mm 1 m/s 726 mmHg 74%
    19:00 +28°C° 0 mm 1 m/s 726 mmHg 77%
    20:00 +27°C° 0 mm 1 m/s 727 mmHg 79%
    21:00 +27°C° 0 mm 1 m/s 728 mmHg 82%
    22:00 +26°C° 0 mm 1 m/s 727 mmHg 84%
    23:00 +26°C° 0 mm 1 m/s 727 mmHg 86%

    Mâine, 20 Septembrie, Joi

    Timp Temperatura Precipitaţii Vânt Presiune Umiditate
    00:00 +26°C° 0 mm 1 m/s 727 mmHg 88%
    01:00 +25°C° 0 mm 1 m/s 727 mmHg 90%
    02:00 +25°C° 0 mm 1 m/s 726 mmHg 91%
    03:00 +25°C° 0 mm 2 m/s 726 mmHg 93%
    04:00 +25°C° 0 mm 1 m/s 726 mmHg 94%
    05:00 +24°C° 0 mm 1 m/s 726 mmHg 95%
    06:00 +24°C° 0 mm 1 m/s 726 mmHg 96%
    07:00 +26°C° 0.3 mm 2 m/s 727 mmHg 91%
    08:00 +27°C° 0.3 mm 2 m/s 727 mmHg 86%
    09:00 +29°C° 0.3 mm 2 m/s 728 mmHg 80%
    10:00 +30°C° 3 mm 2 m/s 728 mmHg 79%
    11:00 +30°C° 3 mm 1 m/s 727 mmHg 77%
    12:00 +31°C° 3 mm 1 m/s 727 mmHg 75%
    13:00 +31°C° 0.5 mm 1 m/s 727 mmHg 74%
    14:00 +29°C° 0.5 mm 0 m/s 726 mmHg 73%
    15:00 +29°C° 0.5 mm 0 m/s 725 mmHg 72%
    16:00 +28°C° 0 mm 0 m/s 725 mmHg 74%
    17:00 +27°C° 0 mm 0 m/s 725 mmHg 77%
    18:00 +26°C° 0 mm 0 m/s 725 mmHg 80%
    19:00 +25°C° 0 mm 0 m/s 726 mmHg 82%
    20:00 +25°C° 0 mm 0 m/s 726 mmHg 83%
    21:00 +26°C° 0 mm 1 m/s 727 mmHg 85%
    22:00 +24°C° 0.1 mm 0 m/s 727 mmHg 86%
    23:00 +24°C° 0.1 mm 0 m/s 727 mmHg 88%

    Poimâine, 21 Septembrie, Vineri

    Timp Temperatura Precipitaţii Vânt Presiune Umiditate
    00:00 +24°C° 0.1 mm 0 m/s 727 mmHg 90%
    01:00 +23°C° 0.3 mm 0 m/s 727 mmHg 91%
    02:00 +25°C° 0.3 mm 1 m/s 726 mmHg 92%
    03:00 +25°C° 0.3 mm 1 m/s 726 mmHg 93%
    04:00 +25°C° 0 mm 1 m/s 726 mmHg 94%
    05:00 +25°C° 0 mm 1 m/s 726 mmHg 94%
    06:00 +25°C° 0 mm 1 m/s 726 mmHg 95%
    07:00 +26°C° 0 mm 2 m/s 727 mmHg 92%
    08:00 +27°C° 0 mm 2 m/s 728 mmHg 89%
    09:00 +28°C° 0 mm 2 m/s 728 mmHg 86%
    10:00 +29°C° 0.1 mm 2 m/s 728 mmHg 79%
    11:00 +31°C° 0.1 mm 2 m/s 727 mmHg 71%
    12:00 +32°C° 0.1 mm 2 m/s 727 mmHg 64%
    13:00 +32°C° 0 mm 2 m/s 726 mmHg 66%
    14:00 +32°C° 0 mm 2 m/s 726 mmHg 67%
    15:00 +32°C° 0 mm 1 m/s 725 mmHg 68%
    16:00 +30°C° 1 mm 1 m/s 725 mmHg 74%
    17:00 +29°C° 1 mm 1 m/s 725 mmHg 80%
    18:00 +27°C° 1 mm 1 m/s 726 mmHg 86%
    19:00 +27°C° 0.6 mm 1 m/s 726 mmHg 88%
    20:00 +26°C° 0.6 mm 1 m/s 727 mmHg 90%
    21:00 +26°C° 0.6 mm 1 m/s 728 mmHg 92%
    22:00 +26°C° 0 mm 1 m/s 727 mmHg 94%
    23:00 +25°C° 0 mm 1 m/s 727 mmHg 95%

    22 Septembrie, Sâmbătă

    Timp Temperatura Precipitaţii Vânt Presiune Umiditate
    00:00 +25°C° 0 mm 2 m/s 727 mmHg 96%
    01:00 +25°C° 0 mm 1 m/s 726 mmHg 96%
    02:00 +24°C° 0 mm 1 m/s 726 mmHg 96%
    03:00 +24°C° 0 mm 1 m/s 726 mmHg 97%
    04:00 +24°C° 0 mm 2 m/s 726 mmHg 96%
    05:00 +24°C° 0 mm 2 m/s 727 mmHg 96%
    06:00 +24°C° 0 mm 2 m/s 727 mmHg 96%
    07:00 +25°C° 0.3 mm 2 m/s 728 mmHg 93%
    08:00 +26°C° 0.3 mm 2 m/s 728 mmHg 89%
    09:00 +27°C° 0.3 mm 2 m/s 729 mmHg 86%
    10:00 +28°C° 0.1 mm 2 m/s 728 mmHg 79%
    11:00 +30°C° 0.1 mm 1 m/s 728 mmHg 71%
    12:00 +32°C° 0.1 mm 1 m/s 727 mmHg 64%
    13:00 +32°C° 0 mm 1 m/s 727 mmHg 63%
    14:00 +32°C° 0 mm 1 m/s 726 mmHg 62%
    15:00 +31°C° 0 mm 0 m/s 726 mmHg 61%
    16:00 +29°C° 0.7 mm 0 m/s 726 mmHg 68%
    17:00 +27°C° 0.7 mm 0 m/s 726 mmHg 76%
    18:00 +25°C° 0.7 mm 0 m/s 727 mmHg 83%
    19:00 +27°C° 0.3 mm 1 m/s 727 mmHg 85%
    20:00 +26°C° 0.3 mm 1 m/s 728 mmHg 88%
    21:00 +26°C° 0.3 mm 1 m/s 728 mmHg 90%
    22:00 +25°C° 0 mm 1 m/s 728 mmHg 91%
    23:00 +25°C° 0 mm 1 m/s 727 mmHg 93%

    23 Septembrie, Duminică

    Timp Temperatura Precipitaţii Vânt Presiune Umiditate
    00:00 +25°C° 0 mm 1 m/s 727 mmHg 94%
    01:00 +24°C° 0.2 mm 1 m/s 727 mmHg 95%
    02:00 +24°C° 0.2 mm 1 m/s 726 mmHg 95%
    03:00 +24°C° 0.2 mm 1 m/s 726 mmHg 96%
    04:00 +24°C° 0.2 mm 1 m/s 727 mmHg 96%
    05:00 +24°C° 0.2 mm 1 m/s 727 mmHg 96%
    06:00 +24°C° 0.2 mm 2 m/s 728 mmHg 95%
    07:00 +24°C° 0.2 mm 2 m/s 728 mmHg 94%
    08:00 +25°C° 0.2 mm 2 m/s 729 mmHg 93%
    09:00 +26°C° 0.2 mm 2 m/s 729 mmHg 91%
    10:00 +26°C° 0.2 mm 2 m/s 728 mmHg 90%
    11:00 +26°C° 0.2 mm 1 m/s 728 mmHg 88%
    12:00 +27°C° 0.2 mm 1 m/s 727 mmHg 87%
    13:00 +27°C° 0 mm 1 m/s 727 mmHg 84%
    14:00 +28°C° 0 mm 1 m/s 726 mmHg 82%
    15:00 +26°C° 0 mm 0 m/s 725 mmHg 79%
    16:00 +25°C° 0 mm 0 m/s 726 mmHg 81%
    17:00 +25°C° 0 mm 0 m/s 726 mmHg 84%
    18:00 +24°C° 0 mm 0 m/s 726 mmHg 86%
    19:00 +24°C° 0 mm 0 m/s 727 mmHg 87%
    20:00 +23°C° 0 mm 0 m/s 727 mmHg 87%
    21:00 +23°C° 0 mm 0 m/s 727 mmHg 88%
    22:00 +23°C° 0 mm 0 m/s 727 mmHg 88%
    23:00 +23°C° 0 mm 0 m/s 727 mmHg 89%

    24 Septembrie, Luni

    Timp Temperatura Precipitaţii Vânt Presiune Umiditate
    00:00 +22°C° 0 mm 0 m/s 727 mmHg 89%
    01:00 +22°C° 0 mm 0 m/s 726 mmHg 89%
    02:00 +24°C° 0 mm 1 m/s 726 mmHg 89%
    03:00 +24°C° 0 mm 1 m/s 726 mmHg 89%
    04:00 +24°C° 0 mm 1 m/s 726 mmHg 91%
    05:00 +24°C° 0 mm 1 m/s 727 mmHg 92%
    06:00 +24°C° 0 mm 2 m/s 727 mmHg 93%
    07:00 +25°C° 0 mm 2 m/s 727 mmHg 89%
    08:00 +27°C° 0 mm 2 m/s 728 mmHg 85%
    09:00 +28°C° 0 mm 3 m/s 728 mmHg 81%
    10:00 +29°C° 0.2 mm 3 m/s 728 mmHg 80%
    11:00 +29°C° 0.2 mm 3 m/s 727 mmHg 79%
    12:00 +30°C° 0.2 mm 3 m/s 727 mmHg 78%
    13:00 +30°C° 0 mm 2 m/s 726 mmHg 77%
    14:00 +30°C° 0 mm 2 m/s 726 mmHg 75%
    15:00 +30°C° 0 mm 1 m/s 726 mmHg 74%
    16:00 +29°C° 1 mm 1 m/s 726 mmHg 80%
    17:00 +28°C° 1 mm 1 m/s 726 mmHg 85%
    18:00 +27°C° 1 mm 1 m/s 727 mmHg 91%
    19:00 +26°C° 0.3 mm 1 m/s 727 mmHg 91%
    20:00 +26°C° 0.3 mm 1 m/s 727 mmHg 92%
    21:00 +25°C° 0.3 mm 1 m/s 728 mmHg 92%
    22:00 +25°C° 0.1 mm 1 m/s 727 mmHg 93%
    23:00 +25°C° 0.1 mm 1 m/s 727 mmHg 93%
    Arată mai mult